EW4048 Weather Reports


time (UTC)temp
C
wind
direction
speed
KPH
gust
KPH
rain 1hr
cm
rain 24hr
cm
rain mn
cm
humidity
%
barometer
mb
20260906161554 31 305 0.0 0.0 0.00 0.00 0.00 47 1016.7
20260906160051 31 139 0.0 0.0 0.00 0.00 0.00 42 1016.9
20260906154547 31 209 0.0 0.0 0.00 0.00 0.00 35 1017.0
20260906153041 31 177 0.0 0.0 0.00 0.00 0.00 15 1017.0
20260906151535 30 92 0.0 0.0 0.00 0.00 0.00 1 1017.1
20260906150032 30 93 0.0 0.0 0.00 0.00 0.00 1 1017.0
20260906144511 29 202 0.0 0.0 0.00 0.00 0.00 1 1017.2
20260906143003 28 272 0.0 0.0 0.00 0.00 0.00 1 1017.1
20260906141541 -17 0.0 0.0 0.00 0.00 0.00 1017.2
20260906140037 -17 0.0 0.0 0.00 0.00 0.00 1017.2
20260906134515 -17 0.0 0.0 0.00 0.00 0.00 1017.1
20260906133011 -17 0.0 0.0 0.00 0.00 0.00 1017.2
20260906131549 -17 0.0 0.0 0.00 0.00 0.00 1017.2
20260906130045 -17 0.0 0.0 0.00 0.00 0.00 1017.1
20260906124523 -17 0.0 0.0 0.00 0.00 0.00 1017.2
20260906123019 -17 0.0 0.0 0.00 0.00 0.00 1017.1
20260906121559 -17 0.0 0.0 0.00 0.00 0.00 1017.0
20260906120111 -17 0.0 0.0 0.00 0.00 0.00 1017.0
20260906114533 -17 0.0 0.0 0.00 0.00 0.00 1016.9
20260906113030 -17 0.0 0.0 0.00 0.00 0.00 1016.7
20260906111506 23 67 0.0 0.0 0.00 0.00 0.00 1 1016.7
20260906110003 23 67 0.0 0.0 0.00 0.00 0.00 1 1016.6
20260906104542 23 67 0.0 0.0 0.00 0.00 0.00 1 1016.4
20260906103037 23 67 0.0 0.0 0.00 0.00 0.00 1 1016.2
20260906101516 23 67 0.0 0.0 0.00 0.00 0.00 1 1016.2
20260906100012 23 67 0.0 0.0 0.00 0.00 0.00 1 1016.2
20260906094552 23 67 0.0 0.0 0.00 0.00 0.00 1 1016.2
20260906093048 23 67 0.0 0.0 0.00 0.00 0.00 1 1015.9
20260906091523 23 67 0.0 0.0 0.00 0.00 0.00 1 1015.8
20260906090020 24 67 0.0 0.0 0.00 0.00 0.00 1 1015.8
20260906084558 24 67 0.0 0.0 0.00 0.00 0.00 1 1015.7
20260906083055 24 67 0.0 0.0 0.00 0.00 0.00 1 1015.7
20260906081531 24 67 0.0 0.0 0.00 0.00 0.00 1 1015.4
20260906080031 24 67 0.0 0.0 0.00 0.00 0.00 1 1015.5
20260906074504 24 67 0.0 0.0 0.00 0.00 0.00 1 1015.7
20260906073059 24 67 0.0 0.0 0.00 0.00 0.00 1 1015.5
20260906071554 24 67 0.0 0.0 0.00 0.00 0.00 1 1015.5
20260906070033 24 67 0.0 0.0 0.00 0.00 0.00 1 1015.7
20260906064514 24 67 0.0 0.0 0.00 0.00 0.00 1 1015.8
20260906063008 25 67 0.0 0.0 0.00 0.00 0.00 1 1015.5
20260906061551 25 67 0.0 0.0 0.00 0.00 0.00 1 1015.8
20260906060042 25 67 0.0 0.0 0.00 0.00 0.00 1 1016.0
20260906054521 25 67 0.0 0.0 0.00 0.00 0.00 1 1016.0
20260906053017 25 67 0.0 0.0 0.00 0.00 0.00 1 1016.1
20260906051603 25 67 0.0 0.0 0.00 0.00 0.00 1 1016.1
20260906050052 25 67 0.0 0.0 0.00 0.00 0.00 1 1016.3
20260906044530 25 67 0.0 0.0 0.00 0.00 0.00 1 1016.3
20260906043030 25 67 0.0 0.0 0.00 0.00 0.00 1 1016.4
20260906041511 25 67 0.0 0.0 0.00 0.00 0.00 1 1016.5
20260906040009 25 67 0.0 0.0 0.00 0.00 0.00 1 1016.6
20260906034503 25 67 0.0 0.0 0.00 0.00 0.00 1 1016.8
20260906033057 25 67 0.0 0.0 0.00 0.00 0.00 1 1017.0
20260906031553 26 67 0.0 0.0 0.00 0.00 0.00 1 1017.1
20260906030049 26 67 0.0 0.0 0.00 0.00 0.00 1 1017.2
20260906024559 26 67 0.0 0.0 0.00 0.00 0.00 1 1017.0
20260906023040 26 67 0.0 0.0 0.00 0.00 0.00 1 1016.9
20260906021520 26 67 0.0 0.0 0.00 0.00 0.00 1 1016.5
20260906020014 26 67 0.0 0.0 0.00 0.00 0.00 1 1016.3
20260906014602 26 52 0.0 0.0 0.00 0.00 0.00 1 1015.9
20260906013048 26 86 0.0 0.0 0.00 0.00 0.00 1 1015.7
20260906011536 27 86 0.0 0.0 0.00 0.00 0.00 1 1015.4
20260906010022 27 86 0.0 0.0 0.00 0.00 0.00 1 1015.3
20260906004607 27 86 0.0 0.0 0.00 0.00 0.00 1 1015.3
20260906003112 27 86 0.0 0.0 0.00 0.00 0.00 1 1015.3
20260906001540 27 86 0.0 0.0 0.00 0.00 0.00 1 1015.3
20260906000036 28 86 0.0 0.0 0.00 0.00 0.00 1 1015.3
20260905234513 28 96 0.0 0.0 0.00 0.00 0.00 1 1015.3
20260905233008 28 63 0.0 0.0 0.00 0.00 0.00 1 1015.2
20260905231605 28 63 0.0 0.0 0.00 0.00 0.00 1 1015.4
20260905230042 29 63 0.0 0.0 0.00 0.00 0.00 4 1015.6
20260905224539 29 63 0.0 0.0 0.00 0.00 0.00 18 1015.5
20260905223017 30 51 0.0 0.0 0.00 0.00 0.00 16 1015.6
20260905221513 30 14 0.0 0.0 0.00 0.00 0.00 7 1015.6
20260905220051 31 349 0.0 0.0 0.00 0.00 0.00 32 1015.7
20260905214546 31 33 0.0 0.0 0.00 0.00 0.00 44 1015.6
20260905213037 31 42 0.0 0.0 0.00 0.25 0.00 39 1015.6
20260905211520 31 62 0.0 0.0 0.00 0.25 0.00 45 1015.5
20260905210100 31 306 0.0 0.0 0.00 0.25 0.00 43 1015.5
20260905204601 31 208 0.0 0.0 0.00 0.25 0.00 31 1015.8
20260905203035 30 238 0.0 0.0 0.00 0.76 0.00 21 1016.0
20260905201534 29 244 0.0 0.0 0.00 0.76 0.00 1 1016.2
20260905200008 28 270 0.0 0.0 0.00 0.76 0.00 1 1016.5
20260905194503 28 221 0.0 0.0 0.00 0.76 0.00 1 1016.7
20260905193047 28 264 0.0 0.0 0.00 1.35 0.00 1 1017.1
20260905191537 28 261 0.0 0.0 0.00 1.35 0.00 1 1017.4
20260905190016 27 208 0.0 0.0 0.00 1.35 0.00 1 1017.5
20260905184512 27 206 0.0 0.0 0.00 1.35 0.00 1 1017.8
20260905183055 28 176 0.0 0.0 0.00 1.35 0.00 1 1017.8
20260905181547 28 172 0.0 0.0 0.00 1.35 0.00 1 1018.1
20260905180024 30 143 0.0 0.0 0.00 1.35 0.00 17 1018.3
20260905174519 29 260 0.0 0.0 0.00 1.35 0.00 3 1018.5
20260905173058 29 218 0.0 0.0 0.00 1.35 0.00 25 1018.4
20260905171555 27 207 0.0 0.0 0.00 1.35 0.00 1 1018.7
20260905170034 28 224 0.0 0.0 0.00 1.35 0.00 1 1018.6
20260905164528 30 206 0.0 0.0 0.00 1.35 0.00 13 1018.7
20260905163007 30 200 0.0 0.0 0.00 1.35 0.00 7 1018.7